EW5375 Weather Reports


time (UTC)temp
C
wind
direction
speed
KPH
gust
KPH
rain 1hr
cm
rain 24hr
cm
rain mn
cm
humidity
%
barometer
mb
20260504050118 11 315 1.6 9.7 0.00 0.00 0.00 43 1012.2
20260504044558 12 34 1.6 8.0 0.00 0.00 0.00 41 1012.0
20260504043104 12 41 1.6 9.7 0.00 0.00 0.00 41 1011.8
20260504041557 12 29 3.2 9.7 0.00 0.00 0.00 39 1011.7
20260504034603 12 36 1.6 9.7 0.00 0.00 0.00 36 1010.7
20260504033056 13 32 3.2 12.9 0.00 0.00 0.00 35 1010.1
20260504031552 13 25 1.6 9.7 0.00 0.00 0.00 34 1009.7
20260504030050 13 46 1.6 8.0 0.00 0.00 0.00 35 1009.2
20260504024549 13 53 0.0 6.4 0.00 0.00 0.00 34 1008.9
20260504023049 14 44 0.0 11.3 0.00 0.00 0.00 35 1008.7
20260504021548 14 30 0.0 9.7 0.00 0.00 0.00 34 1008.5
20260504020059 15 27 0.0 12.9 0.00 0.00 0.00 33 1008.1
20260504014552 15 37 1.6 11.3 0.00 0.00 0.00 32 1007.8
20260504013049 17 72 1.6 11.3 0.00 0.00 0.00 31 1007.2
20260504011548 17 13 1.6 11.3 0.00 0.00 0.00 30 1006.9
20260504010044 18 74 1.6 12.9 0.00 0.00 0.00 30 1006.7
20260504004544 18 72 1.6 11.3 0.00 0.00 0.00 30 1006.3
20260504003046 18 39 0.0 9.7 0.00 0.00 0.00 29 1006.2
20260504001542 19 40 1.6 17.7 0.00 0.00 0.00 29 1006.0
20260504000046 20 39 0.0 6.4 0.00 0.00 0.00 28 1005.9
20260503234531 19 58 1.6 12.9 0.00 0.00 0.00 28 1005.7
20260503233030 20 71 1.6 12.9 0.00 0.00 0.00 28 1005.7
20260503231531 20 315 0.0 8.0 0.00 0.00 0.00 27 1005.6
20260503230029 20 342 1.6 9.7 0.00 0.00 0.00 27 1005.6
20260503224528 20 20 1.6 22.5 0.00 0.00 0.00 26 1005.5
20260503223027 22 64 0.0 8.0 0.00 0.00 0.00 24 1005.4
20260503221525 21 23 0.0 4.8 0.00 0.00 0.00 23 1005.5
20260503220024 21 354 0.0 4.8 0.00 0.00 0.00 24 1005.6
20260503214537 21 50 0.0 9.7 0.00 0.00 0.00 23 1005.6
20260503213022 21 17 0.0 8.0 0.00 0.00 0.00 24 1005.7
20260503211520 21 32 0.0 8.0 0.00 0.00 0.00 24 1005.9
20260503210018 21 40 0.0 4.8 0.00 0.00 0.00 24 1006.1
20260503204517 21 360 0.0 4.8 0.00 0.00 0.00 24 1006.2
20260503203015 21 352 0.0 8.0 0.00 0.00 0.00 24 1006.3
20260503201516 21 49 0.0 4.8 0.00 0.00 0.00 24 1006.4
20260503200013 21 231 0.0 4.8 0.00 0.00 0.00 22 1006.6
20260503194510 21 353 0.0 12.9 0.00 0.00 0.00 23 1006.9
20260503193008 20 11 0.0 4.8 0.00 0.00 0.00 24 1007.1
20260503191514 20 318 0.0 6.4 0.00 0.00 0.00 24 1007.4
20260503190004 20 331 0.0 9.7 0.00 0.00 0.00 25 1007.8
20260503184626 19 11 0.0 8.0 0.00 0.00 0.00 26 1008.1
20260503183101 19 20 0.0 3.2 0.00 0.00 0.00 25 1008.1
20260503181613 20 330 0.0 8.0 0.00 0.00 0.00 24 1008.2
20260503180112 20 310 0.0 9.7 0.00 0.00 0.00 25 1008.6
20260503174557 19 279 0.0 6.4 0.00 0.00 0.00 25 1009.0
20260503173059 18 17 0.0 6.4 0.00 0.00 0.00 26 1009.2
20260503171548 18 15 0.0 12.9 0.00 0.00 0.00 25 1009.3
20260503081548 11 280 0.0 4.8 0.00 0.00 0.00 35 1010.7